User: anonymous   Login
Location: Podia
(1.5569°N, 32.3469°E)
Time: 09:09:57
(UTC+00:00)
Language:

N. Korean satellite - Orbit

View from above orbital plane
View from above orbital plane
View from above satellite
View from above satellite

Ground track
Ground track

The orbit data is extracted from the following two-line orbital elements,

1 39026U 12072A   20266.90982676 +.00001198 +00000-0 +44624-4 0  9998
2 39026 097.2290 260.8628 0035270 256.8391 102.8913 15.28857516432139
Epoch (UTC): 22 September 2020 21:50:09
Eccentricity: 0.0035270
inclination: 97.2290°
perigee height: 455 km
apogee height: 503 km
right ascension of ascending node: 260.8628°
argument of perigee: 256.8391°
revolutions per day: 15.28857516
mean anomaly at epoch: 102.8913°
orbit number at epoch: 43213

The dashed part of the orbit path shows where the satellite is in the earth's shadow,  

DLR